Lake Charles Regional, LA

11:17 AM CDT on March 30, 2017 (GMT -0500)
Lake Charles Regional

Weather History for KLCH - November, 2013

Change the Weather History Date:

Saturday, November 23, 2013

  Actual Average Record
Temperature  
Mean Temperature 53 °F 59 °F  
Max Temperature 60 °F 69 °F 89 °F (1896)
Min Temperature 45 °F 49 °F 28 °F (1975)
Degree Days  
Heating Degree Days 12 7  
Month to date heating degree days 105 112  
Since 1 July heating degree days 123 148  
Cooling Degree Days 0 1  
Month to date cooling degree days 40 47  
Year to date cooling degree days 2947 2780  
Growing Degree Days 2 (Base 50)    
Moisture  
Dew Point 49 °F    
Average Humidity 88    
Maximum Humidity 100    
Minimum Humidity 76    
Precipitation  
Precipitation 0.02 in 0.14 in 3.37 in (2014)
Month to date precipitation 0.54 3.43  
Year to date precipitation 52.77 51.81  
Snow  
Snow 0.00 in 0.00 in 0.00 in ()
Month to date snowfall 0.0 0.0  
Since 1 July snowfall 0.0 0.0  
Since 1 September snowfall 0.0 0.0  
Snow Depth 0.00 in    
Sea Level Pressure  
Sea Level Pressure 30.29 in    
Wind  
Wind Speed 15 mph (NNE)    
Max Wind Speed 25 mph    
Max Gust Speed 33 mph    
Visibility 8 miles    
Events Rain    
T = Trace of Precipitation, MM = Missing Value Source: NWS Daily Summary

Daily Weather History Graph

Daily Weather History Graph

Search for Another Location

Airport or City:

Trip Planner

Search our weather history database for the weather conditions in past years. The results will help you decide how hot, cold, wet, or windy it might be!

Date:

Astronomy

Nov. 23, 2013 Rise Set
Actual Time 6:45 AM CST 5:13 PM CST
Civil Twilight 6:19 AM CST 5:39 PM CST
Nautical Twilight 5:50 AM CST 6:08 PM CST
Astronomical Twilight 5:21 AM CST 6:37 PM CST
Moon 10:32 PM CST (11/23) 11:10 AM CST (11/23)
Length of Visible Light 11h 19m
Length of Day
10h 28m
Waning Gibbous, 69% of the Moon is Illuminated
Nov 23
Waning Gibbous
Nov 25
Last Quarter
Dec 2
New
Dec 9
First Quarter
Dec 17
Full

Hourly Weather History & Observations

Time (CST) Temp. Windchill Dew Point Humidity Pressure Visibility Wind Dir Wind Speed Gust Speed Precip Events Conditions
12:53 AM 59.0 °F - 57.9 °F 96% 30.22 in 8.0 mi North 5.8 mph - N/A   Overcast
1:53 AM 59.0 °F - 57.9 °F 96% 30.22 in 5.0 mi North 9.2 mph - N/A   Overcast
2:53 AM 57.9 °F - 57.9 °F 100% 30.22 in 5.0 mi North 6.9 mph - N/A   Overcast
3:53 AM 59.0 °F - 59.0 °F 100% 30.22 in 6.0 mi North 6.9 mph - N/A   Overcast
4:50 AM 60.8 °F - 59.0 °F 94% 30.20 in 5.0 mi NNE 8.1 mph - N/A   Overcast
4:53 AM 60.1 °F - 59.0 °F 96% 30.22 in 6.0 mi NNE 10.4 mph - N/A   Overcast
5:35 AM 60.8 °F - 59.0 °F 94% 30.21 in 3.0 mi NNE 9.2 mph - 0.00 in Rain Light Rain
5:43 AM 60.8 °F - 59.0 °F 94% 30.22 in 2.5 mi North 8.1 mph - 0.00 in Rain Light Rain
5:53 AM 59.0 °F - 57.9 °F 96% 30.24 in 3.0 mi NNE 11.5 mph - 0.01 in Rain Light Rain
6:02 AM 59.0 °F - 57.2 °F 94% 30.22 in 4.0 mi NNE 10.4 mph - 0.00 in Rain Light Rain
6:53 AM 57.0 °F - 55.9 °F 96% 30.27 in 7.0 mi NNE 12.7 mph - 0.00 in   Overcast
7:53 AM 55.0 °F - 53.1 °F 93% 30.29 in 3.0 mi NNE 16.1 mph - N/A   Overcast
8:53 AM 53.1 °F - 51.1 °F 93% 30.30 in 10.0 mi NNE 17.3 mph 23.0 mph N/A   Overcast
9:53 AM 52.0 °F - 50.0 °F 93% 30.32 in 10.0 mi NNE 18.4 mph - N/A   Overcast
10:53 AM 53.1 °F - 48.9 °F 86% 30.33 in 10.0 mi NNE 16.1 mph 24.2 mph N/A   Overcast
11:19 AM 53.6 °F - 48.2 °F 82% 30.29 in 10.0 mi NNE 18.4 mph 25.3 mph N/A   Overcast
11:53 AM 52.0 °F - 46.9 °F 83% 30.31 in 10.0 mi NNE 18.4 mph - N/A   Overcast
12:53 PM 52.0 °F - 46.0 °F 80% 30.30 in 10.0 mi NNE 17.3 mph 23.0 mph N/A   Overcast
1:34 PM 51.8 °F - 46.4 °F 82% 30.27 in 10.0 mi NNE 18.4 mph 21.9 mph N/A   Overcast
1:53 PM 51.1 °F - 46.9 °F 86% 30.29 in 10.0 mi NNE 17.3 mph 24.2 mph N/A   Overcast
2:53 PM 50.0 °F - 45.0 °F 83% 30.29 in 10.0 mi NNE 20.7 mph 27.6 mph N/A   Overcast
3:17 PM 50.0 °F - 44.6 °F 82% 30.27 in 10.0 mi NNE 21.9 mph 26.5 mph N/A   Overcast
3:53 PM 50.0 °F - 44.1 °F 80% 30.30 in 10.0 mi NNE 19.6 mph 26.5 mph N/A   Overcast
4:53 PM 48.9 °F - 44.1 °F 83% 30.30 in 10.0 mi NNE 20.7 mph 26.5 mph N/A   Overcast
5:53 PM 48.9 °F - 44.1 °F 83% 30.32 in 10.0 mi NNE 17.3 mph 23.0 mph N/A   Overcast
6:53 PM 48.0 °F - 44.1 °F 86% 30.35 in 10.0 mi NNE 17.3 mph 24.2 mph 0.00 in Rain Light Rain
7:33 PM 46.4 °F 39.0 °F 44.6 °F 93% 30.33 in 10.0 mi NE 19.6 mph 25.3 mph 0.01 in Rain Light Rain
7:53 PM 46.9 °F - 43.0 °F 86% 30.37 in 10.0 mi NNE 16.1 mph - 0.01 in   Overcast
8:53 PM 46.9 °F - 43.0 °F 86% 30.38 in 10.0 mi NNE 15.0 mph 24.2 mph N/A   Overcast
9:44 PM 46.4 °F 38.5 °F 41.0 °F 81% 30.35 in 10.0 mi NNE 21.9 mph 33.4 mph N/A   Scattered Clouds
9:53 PM 46.9 °F - 39.9 °F 77% 30.38 in 10.0 mi NNE 19.6 mph 33.4 mph N/A   Mostly Cloudy
10:53 PM 46.0 °F 39.6 °F 39.0 °F 76% 30.39 in 10.0 mi NNE 15.0 mph - N/A   Clear
11:53 PM 45.0 °F 37.9 °F 37.0 °F 74% 30.38 in 10.0 mi NNE 16.1 mph 25.3 mph N/A   Clear